Location: Kamms Corner
(44.7255°N, 108.9326°W)
Time: 16:55:46
(UTC+00:00)

N. Korean satellite - Pass Details

Date: 30 January 2022
Orbit: 438 x 478 km, 97.3° (Epoch: 21 May)

Event Time Altitude Azimuth Distance (km) Brightness Sun altitude
Rises 11:43:56 0° 25° (NNE) 2,634 10.7 -30.8°
Reaches altitude 10° 11:46:24 10° 41° (NE) 1,739 9.9 -30.4°
Maximum altitude 11:49:22 22° 94° (E) 1,149 9.1 -29.9°
Drops below altitude 10° 11:52:18 10° 146° (SSE) 1,713 9.6 -29.3°
Sets 11:54:43 0° 162° (SSE) 2,581 10.4 -28.9°
